Weather Roundup
Issued by NWS

Home | Current Version | Previous Version | Graphics & Text | Print | Product List | Glossary Off
Versions: 1 2 3 4 5 6 7 8 9 10 11 12 13 14 15 16 17 18 19 20 21 22 23 24 25 26 27 28 29 30 31 32 33 34 35 36 37 38 39 40 41 42 43 44 45 46 47 48 49 50

000
NZUS93 KARX 241559
HRRWXR

CURRENT HOURLY OBSERVATIONS ACROSS
MUCH OF THE UPPER MISSISSIPPI VALLEY
NATIONAL WEATHER SERVICE LA CROSSE WI
1100 AM CDT SUN JUL 24 2016


...SOUTHEAST MINNESOTA...


CITY           SKY/WX    TMP DP  RH WIND       PRES   REMARKS
ROCHESTER      SUNNY     81  69  67 NW14      29.89R
ROCHESTER/MAYO FAIR      80  66  62 NW12G23   29.88R
WINONA         MOSUNNY   82  72  69 NW9       29.83R
AUSTIN         SUNNY     81  66  61 NW14G21   29.91R
ALBERT LEA     SUNNY     79  64  61 NW5       29.93R
DODGE CENTER   SUNNY     81  66  61 NW14      29.91R
PRESTON        SUNNY     80  69  70 NW12      29.89R
OWATONNA       SUNNY     79  64  61 W15       29.92R
FARIBAULT      SUNNY     79  68  69 W8G17     29.91R
$$

...ELSEWHERE IN MINNESOTA...


CITY           SKY/WX    TMP DP  RH WIND       PRES   REMARKS
MINNEAPOLIS    MOSUNNY   81  64  56 W15       29.88R
INTNL FALLS    PTSUNNY   70  61  73 W15G21    29.77R
DULUTH         MOSUNNY   77  65  66 W13       29.80S
RED WING       SUNNY     82  68  61 NW13G20   29.84R
REDWOOD FALLS  CLOUDY    75  61  61 NW9       29.96R
MANKATO        SUNNY     77  63  61 NW16      29.92F
WORTHINGTON    SUNNY     76  63  64 MISG      30.00S
FAIRMONT       SUNNY     77  46  33 NW8       29.95R
$$

...SOUTHWEST WISCONSIN...


CITY           SKY/WX    TMP DP  RH WIND       PRES   REMARKS
LA CROSSE      MOSUNNY   85  74  69 N10       29.82R HX  92
PRAIRIE DU CHI CLOUDY    81  76  83 W7        29.83R
BOSCOBEL       CLOUDY    84  77  79 W6        29.83R HX  94
LONE ROCK      NOT AVBL
PLATTEVILLE    PTSUNNY   84  81  89 W12       29.85S HX  98
FORT MC COY    MOSUNNY   81  76  83 W5        29.82S
MAUSTON-NEW LI CLOUDY    80  77  91 W5        29.82R
VIROQUA        CLOUDY    78  78  99 W6        29.86R
WIS DELLS      NOT AVBL
$$

...ELSEWHERE IN WISCONSIN...


CITY           SKY/WX    TMP DP  RH WIND       PRES   REMARKS
MILWAUKEE      CLOUDY    85  76  74 SW12      29.85R HX  94
MADISON        PTSUNNY   85  77  77 SW7       29.83S HX  95
GREEN BAY      CLOUDY    75  75 100 S6        29.82S
EAU CLAIRE     MOSUNNY   81  72  74 W10       29.82R
BLACK RVR FLS  PTSUNNY   83  74  74 W6        29.80S HX  90
MEDFORD        DRIZZLE   72  72 100 W7        29.83S
WAUSAU         CLOUDY    74  73  97 W6        29.80S FOG
WIS RAPIDS     CLOUDY    80  74  81 W7        29.82S
MARSHFIELD     CLOUDY    76  73  91 W9        29.82R
RICE LAKE      PTSUNNY   77  69  75 W7        29.85S
$$

...NORTHEAST IOWA...


CITY           SKY/WX    TMP DP  RH WIND       PRES   REMARKS
WATERLOO       CLOUDY    83  76  79 NW10      29.87R HX  91
DUBUQUE        MOSUNNY   86  78  77 W13       29.87R HX  98
DECORAH        PTSUNNY   82  79  89 VRB7      29.85S HX  93
MASON CITY     SUNNY     81  68  64 NW17      29.95R
CHARLES CITY   SUNNY     82  75  78 N13       29.90R
OELWEIN        CLOUDY    81  77  89 NW8       29.89R
$$

...ELSEWHERE IN IOWA...


CITY           SKY/WX    TMP DP  RH WIND       PRES   REMARKS
DES MOINES     MOSUNNY   87  74  64 N12       29.89S HX  95
IOWA CITY      CLOUDY    89  78  70 W12       29.87R HX 103
FORT DODGE     SUNNY     81  70  69 NW10      29.96R
MARSHALLTOWN   MOSUNNY   85  77  77 N8        29.89R HX  95
CEDAR RAPIDS   SUNNY     87  80  79 W9        29.86R HX 103
$$

...NORTHERN ILLINOIS...


CITY           SKY/WX    TMP DP  RH WIND       PRES   REMARKS
CHICAGO-OHARE  PTSUNNY   84  76  76 SW14G23   29.89F HX  93
CHICAGO-MIDWAY PTSUNNY   86  75  69 S15G24    29.90S HX  95
MOLINE         CLOUDY    89  77  67 SW8       29.85S HX 101
ROCKFORD       MOSUNNY   87  79  76 S16       29.87F HX 101
PEORIA         SUNNY     88  80  77 S12       29.92S HX 104
$$

NOTE: "FAIR" INDICATES FEW OR NO CLOUDS BELOW 12,000 FEET WITH NO
SIGNIFICANT WEATHER AND/OR OBSTRUCTIONS TO VISIBILITY. WIND
SPEEDS ARE IN MILES-PER-HOUR.




USA.gov is the U.S. government's official web portal to all federal, state and local government web resources and services.